sat.trackr.live / text

‹ back to catalog

STARLINK-37882

NORAD 69954 · 2026-157M

PAYLOAD ACTIVE UNKNOWN

§ Identity

Operator
Country
US
Launch date
2026-07-09
Launch site
AFETR
Launch vehicle
Mass (kg)
RCS (m²)

Purposes: comms

External: N2YO · Heavens-Above · Gunter

§ Orbital elements

Epoch: 2026-09-18T22:23:51.631008Z

Period
93.85 min
Inclination
53.1599°
Eccentricity
0.0001304
Mean motion
15.34393355 rev/d
Perigee alt
461.8 km
Apogee alt
463.6 km
Semi-major
6,840.9 km
B*
-8.8568e-5
RAAN
340.9580°
Arg perigee
95.3086°
Mean anomaly
264.8065°
Rev number
1,113

§ Raw data

STARLINK-378821 69954U 26157M   26261.93323647 -.00003367  00000+0 -88568-4 0  99972 69954  53.1599 340.9580 0001304  95.3086 264.8065 15.34393355 11133

JSON: /api/v1/satellites/69954 · /tle

For live sub-satellite position, see the globe view (requires WebGL).

§ Visibility from observer

Set your observer location to see the next 7 days of passes ≥ 10°. The values pass through the URL so the page stays shareable.

No JS? Fill the form by hand. The geolocation button needs JavaScript.